LRCT Weather Reports


time (UTC)temp
C
wind
direction
speed
KPH
gust
KPH
rain 1hr
cm
rain 24hr
cm
rain mn
cm
humidity
%
barometer
mb
20260508033357 13 4.8 0.0 0.00 0.00 0.00 100 1015.0
20260508031854 13 4.8 0.0 0.00 0.00 0.00 100 1015.0
20260508030358 13 4.8 0.0 0.00 0.00 0.00 100 1015.0
20260508024857 -17 0.0 0.0 0.00 0.00 0.00
20260508023358 -17 0.0 0.0 0.00 0.00 0.00
20260508021858 -17 0.0 0.0 0.00 0.00 0.00
20260508020357 -17 0.0 0.0 0.00 0.00 0.00
20260508014854 -17 0.0 0.0 0.00 0.00 0.00
20260508013357 -17 0.0 0.0 0.00 0.00 0.00
20260508011857 -17 0.0 0.0 0.00 0.00 0.00
20260508010356 -17 0.0 0.0 0.00 0.00 0.00
20260508004857 -17 0.0 0.0 0.00 0.00 0.00
20260508003357 -17 0.0 0.0 0.00 0.00 0.00
20260508001853 -17 0.0 0.0 0.00 0.00 0.00
20260508000357 -17 0.0 0.0 0.00 0.00 0.00
20260507234854 -17 0.0 0.0 0.00 0.00 0.00
20260507233356 -17 0.0 0.0 0.00 0.00 0.00
20260507231853 -17 0.0 0.0 0.00 0.00 0.00
20260507230356 -17 0.0 0.0 0.00 0.00 0.00
20260507224857 -17 0.0 0.0 0.00 0.00 0.00
20260507223519 -17 0.0 0.0 0.00 0.00 0.00
20260507221854 -17 0.0 0.0 0.00 0.00 0.00
20260507220356 -17 0.0 0.0 0.00 0.00 0.00
20260507214856 15 310 4.8 0.0 0.00 0.00 0.00 100 1015.0
20260507213358 15 310 4.8 0.0 0.00 0.00 0.00 100 1015.0
20260507211857 15 310 4.8 0.0 0.00 0.00 0.00 100 1015.0
20260507210357 15 310 4.8 0.0 0.00 0.00 0.00 100 1015.0
20260507204857 15 310 4.8 0.0 0.00 0.00 0.00 100 1015.0
20260507203357 15 330 4.8 0.0 0.00 0.00 0.00 100 1015.0
20260507201854 15 330 4.8 0.0 0.00 0.00 0.00 100 1015.0
20260507200357 15 330 4.8 0.0 0.00 0.00 0.00 100 1015.0
20260507194902 16 320 9.7 0.0 0.00 0.00 0.00 94 1015.0
20260507193356 16 320 9.7 0.0 0.00 0.00 0.00 94 1015.0
20260507191853 16 320 9.7 0.0 0.00 0.00 0.00 94 1015.0
20260507190358 16 320 9.7 0.0 0.00 0.00 0.00 94 1015.0
20260507184859 17 360 9.7 0.0 0.00 0.00 0.00 77 1014.0
20260507183356 17 360 9.7 0.0 0.00 0.00 0.00 77 1014.0
20260507181857 17 360 9.7 0.0 0.00 0.00 0.00 77 1014.0
20260507180356 17 360 9.7 0.0 0.00 0.00 0.00 77 1014.0
20260507174856 18 340 14.5 0.0 0.00 0.00 0.00 68 1014.0
20260507173357 18 340 14.5 0.0 0.00 0.00 0.00 68 1014.0
20260507171857 18 340 14.5 0.0 0.00 0.00 0.00 68 1014.0
20260507170356 18 340 14.5 0.0 0.00 0.00 0.00 68 1014.0
20260507164857 20 340 16.1 0.0 0.00 0.00 0.00 69 1013.0
20260507163357 20 340 16.1 0.0 0.00 0.00 0.00 69 1013.0
20260507161856 20 340 16.1 0.0 0.00 0.00 0.00 69 1013.0
20260507160356 -17 0.0 0.0 0.00 0.00 0.00
20260507154857 20 330 8.0 0.0 0.00 0.00 0.00 69 1013.0
20260507153357 20 330 8.0 0.0 0.00 0.00 0.00 69 1013.0
20260507151857 20 330 8.0 0.0 0.00 0.00 0.00 69 1013.0
20260507150356 20 330 8.0 0.0 0.00 0.00 0.00 69 1013.0
20260507144856 20 210 22.5 0.0 0.00 0.00 0.00 60 1014.0
20260507143358 20 210 22.5 0.0 0.00 0.00 0.00 60 1014.0
20260507141857 20 210 22.5 0.0 0.00 0.00 0.00 60 1014.0
20260507140356 20 210 22.5 0.0 0.00 0.00 0.00 60 1014.0
20260507134857 22 230 24.1 0.0 0.00 0.00 0.00 44 1013.0
20260507133356 22 230 24.1 0.0 0.00 0.00 0.00 44 1013.0
20260507131853 22 230 24.1 0.0 0.00 0.00 0.00 44 1013.0
20260507130356 22 230 24.1 0.0 0.00 0.00 0.00 44 1013.0
20260507124853 25 190 14.5 0.0 0.00 0.00 0.00 34 1014.0
20260507123435 25 190 14.5 0.0 0.00 0.00 0.00 34 1014.0
20260507121856 25 190 14.5 0.0 0.00 0.00 0.00 34 1014.0
20260507120357 25 190 14.5 0.0 0.00 0.00 0.00 34 1014.0
20260507114857 23 4.8 0.0 0.00 0.00 0.00 36 1014.0
20260507113423 -17 0.0 0.0 0.00 0.00 0.00
20260507111856 23 4.8 0.0 0.00 0.00 0.00 36 1014.0
20260507110356 -17 0.0 0.0 0.00 0.00 0.00
20260507104856 22 4.8 0.0 0.00 0.00 0.00 47 1015.0
20260507103356 22 4.8 0.0 0.00 0.00 0.00 47 1015.0
20260507101856 22 4.8 0.0 0.00 0.00 0.00 47 1015.0
20260507100357 22 4.8 0.0 0.00 0.00 0.00 47 1015.0
20260507094857 -17 0.0 0.0 0.00 0.00 0.00
20260507093357 -17 0.0 0.0 0.00 0.00 0.00
20260507091858 -17 0.0 0.0 0.00 0.00 0.00
20260507090357 -17 0.0 0.0 0.00 0.00 0.00
20260507084857 20 160 4.8 0.0 0.00 0.00 0.00 53 1015.0
20260507083357 20 160 4.8 0.0 0.00 0.00 0.00 53 1015.0
20260507081857 20 160 4.8 0.0 0.00 0.00 0.00 53 1015.0
20260507080357 20 160 4.8 0.0 0.00 0.00 0.00 53 1015.0
20260507074857 18 180 4.8 0.0 0.00 0.00 0.00 56 1015.0
20260507073356 18 180 4.8 0.0 0.00 0.00 0.00 56 1015.0
20260507071857 18 180 4.8 0.0 0.00 0.00 0.00 56 1015.0
20260507070356 18 180 4.8 0.0 0.00 0.00 0.00 56 1015.0
20260507064856 15 180 3.2 0.0 0.00 0.00 0.00 68 1015.0
20260507063357 15 180 3.2 0.0 0.00 0.00 0.00 68 1015.0
20260507061906 15 180 3.2 0.0 0.00 0.00 0.00 68 1015.0
20260507060357 15 180 3.2 0.0 0.00 0.00 0.00 68 1015.0
20260507054856 13 190 3.2 0.0 0.00 0.00 0.00 67 1014.0
20260507053404 13 190 3.2 0.0 0.00 0.00 0.00 67 1014.0
20260507051857 13 190 3.2 0.0 0.00 0.00 0.00 67 1014.0
20260507050356 -17 0.0 0.0 0.00 0.00 0.00
20260507044850 8 350 3.2 0.0 0.00 0.00 0.00 87 1014.0
20260507043356 8 350 3.2 0.0 0.00 0.00 0.00 87 1014.0
20260507041857 8 350 3.2 0.0 0.00 0.00 0.00 87 1014.0
20260507040356 8 350 3.2 0.0 0.00 0.00 0.00 87 1014.0
20260507034853 11 70 3.2 0.0 0.00 0.00 0.00 72 1014.0